TimePDT,TemperatureF,Dew PointF,Humidity,Sea Level PressureIn,VisibilityMPH,Wind Direction,Wind SpeedMPH,Gust SpeedMPH,PrecipitationIn,Events,Conditions,WindDirDegrees,DateUTC
12:53 AM,44.1,41.0,89,30.21,10.0,Calm,Calm,-,N/A,,Clear,0,2012-10-18 07:53:00
1:53 AM,42.1,39.9,92,30.20,9.0,Calm,Calm,-,N/A,,Clear,0,2012-10-18 08:53:00
2:51 AM,44.6,42.8,93,30.20,10.0,Calm,Calm,-,N/A,,Scattered Clouds,0,2012-10-18 09:51:00
2:53 AM,45.0,43.0,93,30.20,10.0,Calm,Calm,-,N/A,,Scattered Clouds,0,2012-10-18 09:53:00
3:18 AM,44.6,42.8,93,30.19,9.0,Calm,Calm,-,N/A,,Mostly Cloudy,0,2012-10-18 10:18:00
3:53 AM,46.0,44.1,93,30.18,4.0,Calm,Calm,-,N/A,,Overcast,0,2012-10-18 10:53:00
4:12 AM,44.6,44.6,100,30.17,0.8,Calm,Calm,-,N/A,,Overcast,0,2012-10-18 11:12:00
4:53 AM,45.0,44.1,97,30.16,0.5,Calm,Calm,-,N/A,Fog,Fog,0,2012-10-18 11:53:00
5:05 AM,44.6,44.6,100,30.15,0.2,Calm,Calm,-,N/A,Fog,Fog,0,2012-10-18 12:05:00
5:41 AM,44.6,42.8,93,30.14,0.5,Calm,Calm,-,N/A,Fog,Fog,0,2012-10-18 12:41:00
5:53 AM,44.1,43.0,96,30.14,0.5,Calm,Calm,-,N/A,Fog,Fog,0,2012-10-18 12:53:00
6:37 AM,42.8,42.8,100,30.13,1.5,Calm,Calm,-,0.01,,Overcast,0,2012-10-18 13:37:00
6:53 AM,43.0,43.0,100,30.13,1.8,Calm,Calm,-,0.01,,Overcast,0,2012-10-18 13:53:00
6:59 AM,42.8,42.8,100,30.12,0.8,Calm,Calm,-,N/A,,Overcast,0,2012-10-18 13:59:00
7:19 AM,42.8,42.8,100,30.11,0.2,Calm,Calm,-,N/A,Fog,Fog,0,2012-10-18 14:19:00
7:40 AM,42.8,41.0,93,30.10,0.5,Calm,Calm,-,N/A,Fog,Fog,0,2012-10-18 14:40:00
7:48 AM,42.8,42.8,100,30.10,0.2,Calm,Calm,-,N/A,Fog,Fog,0,2012-10-18 14:48:00
7:53 AM,42.1,42.1,100,30.10,0.2,Calm,Calm,-,N/A,Fog,Fog,0,2012-10-18 14:53:00
8:08 AM,42.8,42.8,100,30.10,0.8,Calm,Calm,-,N/A,,Mist,0,2012-10-18 15:08:00
8:15 AM,44.6,42.8,93,30.10,1.5,Calm,Calm,-,N/A,,Overcast,0,2012-10-18 15:15:00
8:23 AM,44.6,42.8,93,30.10,0.8,NW,3.5,-,N/A,,Overcast,320,2012-10-18 15:23:00
8:34 AM,44.6,44.6,100,30.10,0.2,NW,4.6,-,N/A,Fog,Fog,320,2012-10-18 15:34:00
8:53 AM,44.1,44.1,100,30.10,0.8,NNW,3.5,-,N/A,,Overcast,330,2012-10-18 15:53:00
9:01 AM,44.6,44.6,100,30.10,1.2,WNW,3.5,-,N/A,,Overcast,290,2012-10-18 16:01:00
9:12 AM,44.6,44.6,100,30.09,2.0,Calm,Calm,-,N/A,,Overcast,0,2012-10-18 16:12:00
9:24 AM,44.6,44.6,100,30.09,5.0,Calm,Calm,-,N/A,,Overcast,0,2012-10-18 16:24:00
9:53 AM,46.0,45.0,96,30.08,9.0,Calm,Calm,-,N/A,,Mostly Cloudy,0,2012-10-18 16:53:00
10:07 AM,46.4,44.6,93,30.08,10.0,Calm,Calm,-,N/A,,Scattered Clouds,0,2012-10-18 17:07:00
10:53 AM,51.1,46.0,83,30.06,10.0,SW,3.5,-,N/A,,Clear,220,2012-10-18 17:53:00
11:53 AM,55.9,43.0,62,30.03,10.0,WNW,4.6,-,N/A,,Clear,290,2012-10-18 18:53:00
12:53 PM,61.0,43.0,52,30.00,10.0,Calm,Calm,-,N/A,,Clear,0,2012-10-18 19:53:00
1:53 PM,63.0,43.0,48,29.97,10.0,Calm,Calm,-,N/A,,Clear,0,2012-10-18 20:53:00
2:53 PM,66.0,43.0,43,29.95,10.0,Calm,Calm,-,N/A,,Clear,0,2012-10-18 21:53:00
3:53 PM,66.0,43.0,43,29.92,10.0,East,5.8,-,N/A,,Clear,100,2012-10-18 22:53:00
4:53 PM,66.0,43.0,43,29.91,10.0,ESE,4.6,-,N/A,,Clear,110,2012-10-18 23:53:00
5:53 PM,64.0,44.1,48,29.90,10.0,ESE,3.5,-,N/A,,Clear,110,2012-10-19 00:53:00
6:53 PM,61.0,46.0,58,29.90,10.0,Calm,Calm,-,N/A,,Mostly Cloudy,0,2012-10-19 01:53:00
8:53 PM,61.0,48.9,64,29.93,10.0,ESE,4.6,-,0.00,Rain,Light Rain,110,2012-10-19 03:53:00
9:53 PM,57.0,51.1,81,29.92,10.0,ESE,9.2,-,0.03,,Scattered Clouds,110,2012-10-19 04:53:00
10:53 PM,55.9,51.1,84,29.94,10.0,ESE,4.6,-,N/A,,Partly Cloudy,120,2012-10-19 05:53:00
11:53 PM,57.0,52.0,83,29.94,10.0,SSE,3.5,-,N/A,,Overcast,150,2012-10-19 06:53:00